Time,TemperatureF,DewpointF,PressureIn,WindDirection,WindDirectionDegrees,WindSpeedMPH,WindSpeedGustMPH,Humidity,HourlyPrecipIn,Conditions,Clouds,dailyrainin,SoftwareType,DateUTC
2013-08-26 00:01:00,66.4,64.0,28.87,SE,135,0.0,0.0,92,0.00,CLR,SKC,0.00,WeatherDisplay:10.37,2013-08-26 04:01:00,
2013-08-26 00:02:00,66.4,64.0,28.87,SE,135,0.0,0.0,92,0.00,CLR,SKC,0.00,WeatherDisplay:10.37,2013-08-26 04:02:00,
2013-08-26 00:03:00,66.4,64.0,28.87,SE,135,0.0,0.0,92,0.00,CLR,SKC,0.00,WeatherDisplay:10.37,2013-08-26 04:03:00,
2013-08-26 00:04:00,66.4,64.0,28.87,SE,135,0.0,0.0,92,0.00,CLR,SKC,0.00,WeatherDisplay:10.37,2013-08-26 04:04:00,
2013-08-26 00:09:00,66.0,63.6,28.86,SE,135,0.0,0.0,92,0.00,CLR,SKC,0.00,WeatherDisplay:10.37,2013-08-26 04:09:00,
2013-08-26 00:14:00,66.0,63.6,28.86,SE,135,0.0,0.0,92,0.00,CLR,SKC,0.00,WeatherDisplay:10.37,2013-08-26 04:14:00,
2013-08-26 00:19:00,65.8,63.5,28.87,SE,135,1.2,0.0,92,0.00,CLR,SKC,0.00,WeatherDisplay:10.37,2013-08-26 04:19:00,
2013-08-26 00:24:00,65.8,63.5,28.86,SE,135,0.0,0.0,92,0.00,CLR,SKC,0.00,WeatherDisplay:10.37,2013-08-26 04:24:00,
2013-08-26 00:29:00,65.5,63.1,28.86,SE,135,0.0,0.0,92,0.00,CLR,SKC,0.00,WeatherDisplay:10.37,2013-08-26 04:29:00,
2013-08-26 00:34:00,65.1,62.7,28.87,SE,135,0.0,0.0,92,0.00,CLR,SKC,0.00,WeatherDisplay:10.37,2013-08-26 04:34:00,
2013-08-26 00:39:00,64.9,62.6,28.87,SE,135,0.0,0.0,92,0.00,CLR,SKC,0.00,WeatherDisplay:10.37,2013-08-26 04:39:00,
2013-08-26 00:44:00,64.8,62.4,28.87,SE,135,0.0,0.0,92,0.00,CLR,SKC,0.00,WeatherDisplay:10.37,2013-08-26 04:44:00,
2013-08-26 00:49:00,64.6,62.5,28.87,SE,135,0.0,0.0,93,0.00,CLR,SKC,0.00,WeatherDisplay:10.37,2013-08-26 04:49:00,
2013-08-26 00:54:00,64.8,63.0,28.87,SE,135,0.0,0.0,94,0.00,CLR,SKC,0.00,WeatherDisplay:10.37,2013-08-26 04:54:00,
2013-08-26 00:59:00,64.9,63.2,28.87,SE,135,0.0,0.0,94,0.00,CLR,SKC,0.00,WeatherDisplay:10.37,2013-08-26 04:59:00,
2013-08-26 01:04:00,64.9,63.2,28.87,SE,135,0.0,0.0,94,0.00,CLR,SKC,0.00,WeatherDisplay:10.37,2013-08-26 05:04:00,
2013-08-26 01:09:00,65.1,63.7,28.86,SE,135,1.2,1.2,95,0.00,CLR,SKC,0.00,WeatherDisplay:10.37,2013-08-26 05:09:00,
2013-08-26 01:14:00,65.1,63.3,28.86,SE,135,0.0,0.0,94,0.00,CLR,SKC,0.00,WeatherDisplay:10.37,2013-08-26 05:14:00,
2013-08-26 01:19:00,64.9,63.2,28.87,SE,135,0.0,0.0,94,0.00,CLR,SKC,0.00,WeatherDisplay:10.37,2013-08-26 05:19:00,
2013-08-26 01:24:00,64.8,63.0,28.86,SE,135,0.0,0.0,94,0.00,CLR,SKC,0.00,WeatherDisplay:10.37,2013-08-26 05:24:00,
2013-08-26 01:29:00,64.4,62.6,28.86,SE,135,0.0,0.0,94,0.00,CLR,SKC,0.00,WeatherDisplay:10.37,2013-08-26 05:29:00,
2013-08-26 01:34:00,64.2,62.2,28.86,South,180,0.0,0.0,93,0.00,CLR,SKC,0.00,WeatherDisplay:10.37,2013-08-26 05:34:00,
2013-08-26 01:39:00,64.0,62.3,28.85,South,180,0.0,0.0,94,0.00,CLR,SKC,0.00,WeatherDisplay:10.37,2013-08-26 05:39:00,
2013-08-26 01:44:00,64.0,62.9,28.85,South,180,0.0,0.0,96,0.00,CLR,SKC,0.00,WeatherDisplay:10.37,2013-08-26 05:44:00,
2013-08-26 01:49:00,64.0,62.9,28.84,South,180,0.0,0.0,96,0.00,CLR,SKC,0.00,WeatherDisplay:10.37,2013-08-26 05:49:00,
2013-08-26 01:54:00,63.9,62.7,28.84,SE,135,0.0,0.0,96,0.00,CLR,SKC,0.00,WeatherDisplay:10.37,2013-08-26 05:54:00,
2013-08-26 01:59:00,63.7,62.2,28.84,SE,135,0.0,0.0,95,0.00,CLR,SKC,0.00,WeatherDisplay:10.37,2013-08-26 05:59:00,
2013-08-26 02:04:00,63.7,62.2,28.84,SE,135,0.0,0.0,95,0.00,CLR,SKC,0.00,WeatherDisplay:10.37,2013-08-26 06:04:00,
2013-08-26 02:09:00,63.5,62.0,28.85,SE,135,0.0,0.0,95,0.00,CLR,SKC,0.00,WeatherDisplay:10.37,2013-08-26 06:09:00,
2013-08-26 02:14:00,63.3,62.2,28.84,SE,135,0.0,0.0,96,0.00,CLR,SKC,0.00,WeatherDisplay:10.37,2013-08-26 06:14:00,
2013-08-26 02:19:00,63.3,62.2,28.84,SE,135,0.0,0.0,96,0.00,CLR,SKC,0.00,WeatherDisplay:10.37,2013-08-26 06:19:00,
2013-08-26 02:24:00,63.3,62.5,28.85,NE,45,0.0,0.0,97,0.00,CLR,SKC,0.00,WeatherDisplay:10.37,2013-08-26 06:24:00,
2013-08-26 02:29:00,63.1,62.3,28.85,NE,45,0.0,0.0,97,0.00,CLR,SKC,0.00,WeatherDisplay:10.37,2013-08-26 06:29:00,
2013-08-26 02:34:00,63.0,61.8,28.84,SE,135,0.0,0.0,96,0.00,CLR,SKC,0.00,WeatherDisplay:10.37,2013-08-26 06:34:00,
2013-08-26 02:39:00,62.8,61.9,28.84,SE,135,0.0,0.0,97,0.00,CLR,SKC,0.00,WeatherDisplay:10.37,2013-08-26 06:39:00,
2013-08-26 02:44:00,62.8,61.9,28.84,SE,135,0.0,0.0,97,0.00,CLR,SKC,0.00,WeatherDisplay:10.37,2013-08-26 06:44:00,
2013-08-26 02:49:00,62.6,61.7,28.84,South,180,0.0,0.0,97,0.00,CLR,SKC,0.00,WeatherDisplay:10.37,2013-08-26 06:49:00,
2013-08-26 02:54:00,62.6,62.0,28.84,SE,135,0.0,0.0,98,0.00,CLR,SKC,0.00,WeatherDisplay:10.37,2013-08-26 06:54:00,
2013-08-26 02:59:00,62.6,62.0,28.84,SE,135,0.0,0.0,98,0.00,CLR,SKC,0.00,WeatherDisplay:10.37,2013-08-26 06:59:00,
2013-08-26 03:04:00,62.6,62.0,28.84,SE,135,0.0,0.0,98,0.00,CLR,SKC,0.00,WeatherDisplay:10.37,2013-08-26 07:04:00,
2013-08-26 03:09:00,62.6,62.6,28.83,South,180,3.5,3.5,100,0.00,CLR,SKC,0.00,WeatherDisplay:10.37,2013-08-26 07:09:00,
2013-08-26 03:14:00,62.4,62.4,28.83,South,180,0.0,0.0,100,0.00,CLR,SKC,0.00,WeatherDisplay:10.37,2013-08-26 07:14:00,
2013-08-26 03:19:00,62.4,62.4,28.83,SE,135,0.0,0.0,100,0.00,CLR,SKC,0.00,WeatherDisplay:10.37,2013-08-26 07:19:00,
2013-08-26 03:24:00,62.4,62.4,28.83,SE,135,0.0,0.0,100,0.00,CLR,SKC,0.00,WeatherDisplay:10.37,2013-08-26 07:24:00,
2013-08-26 03:29:00,62.4,62.4,28.84,South,180,0.0,0.0,100,0.00,CLR,SKC,0.00,WeatherDisplay:10.37,2013-08-26 07:29:00,
2013-08-26 03:34:00,62.2,62.2,28.84,South,180,0.0,0.0,100,0.00,CLR,SKC,0.00,WeatherDisplay:10.37,2013-08-26 07:34:00,
2013-08-26 03:39:00,62.1,62.1,28.83,South,180,0.0,0.0,100,0.00,CLR,SKC,0.00,WeatherDisplay:10.37,2013-08-26 07:39:00,
2013-08-26 03:44:00,62.2,62.2,28.82,South,180,0.0,0.0,100,0.00,CLR,SKC,0.00,WeatherDisplay:10.37,2013-08-26 07:44:00,
2013-08-26 03:49:00,62.1,62.1,28.82,South,180,0.0,0.0,100,0.00,CLR,SKC,0.00,WeatherDisplay:10.37,2013-08-26 07:49:00,
2013-08-26 03:54:00,62.1,62.1,28.83,South,180,0.0,0.0,100,0.00,CLR,SKC,0.00,WeatherDisplay:10.37,2013-08-26 07:54:00,
2013-08-26 03:59:00,61.9,61.9,28.83,South,180,0.0,0.0,100,0.00,CLR,SKC,0.00,WeatherDisplay:10.37,2013-08-26 07:59:00,
2013-08-26 04:04:00,61.9,61.9,28.83,South,180,0.0,0.0,100,0.00,CLR,SKC,0.00,WeatherDisplay:10.37,2013-08-26 08:04:00,
2013-08-26 04:09:00,61.9,61.9,28.83,South,180,0.0,0.0,100,0.00,CLR,SKC,0.00,WeatherDisplay:10.37,2013-08-26 08:09:00,
2013-08-26 04:14:00,61.7,61.7,28.83,South,180,0.0,0.0,100,0.00,CLR,SKC,0.00,WeatherDisplay:10.37,2013-08-26 08:14:00,
2013-08-26 04:19:00,61.7,61.7,28.83,South,180,0.0,0.0,100,0.00,CLR,SKC,0.00,WeatherDisplay:10.37,2013-08-26 08:19:00,
2013-08-26 04:24:00,61.7,61.7,28.83,South,180,0.0,0.0,100,0.00,CLR,SKC,0.00,WeatherDisplay:10.37,2013-08-26 08:24:00,
2013-08-26 04:29:00,61.7,61.7,28.82,South,180,0.0,0.0,100,0.00,CLR,SKC,0.00,WeatherDisplay:10.37,2013-08-26 08:29:00,
2013-08-26 04:34:00,61.7,61.7,28.82,South,180,0.0,0.0,100,0.00,CLR,SKC,0.00,WeatherDisplay:10.37,2013-08-26 08:34:00,
2013-08-26 04:39:00,61.7,61.7,28.82,SE,135,0.0,0.0,100,0.00,CLR,SKC,0.00,WeatherDisplay:10.37,2013-08-26 08:39:00,
2013-08-26 04:44:00,61.5,61.5,28.83,SE,135,0.0,0.0,100,0.00,CLR,SKC,0.00,WeatherDisplay:10.37,2013-08-26 08:44:00,
2013-08-26 04:49:00,61.5,61.5,28.82,South,180,0.0,0.0,100,0.00,CLR,SKC,0.00,WeatherDisplay:10.37,2013-08-26 08:49:00,
2013-08-26 04:54:00,61.5,61.5,28.82,SE,135,0.0,0.0,100,0.00,CLR,SKC,0.00,WeatherDisplay:10.37,2013-08-26 08:54:00,
2013-08-26 04:59:00,61.3,61.3,28.82,SE,135,0.0,0.0,100,0.00,CLR,SKC,0.00,WeatherDisplay:10.37,2013-08-26 08:59:00,
2013-08-26 05:04:00,61.3,61.3,28.82,SE,135,0.0,0.0,100,0.00,CLR,SKC,0.00,WeatherDisplay:10.37,2013-08-26 09:04:00,
2013-08-26 05:09:00,61.2,61.2,28.82,South,180,0.0,0.0,100,0.00,CLR,SKC,0.00,WeatherDisplay:10.37,2013-08-26 09:09:00,
2013-08-26 05:14:00,61.2,61.2,28.82,South,180,0.0,0.0,100,0.00,CLR,SKC,0.00,WeatherDisplay:10.37,2013-08-26 09:14:00,
2013-08-26 05:19:00,61.2,61.2,28.82,South,180,0.0,0.0,100,0.00,CLR,SKC,0.00,WeatherDisplay:10.37,2013-08-26 09:19:00,
2013-08-26 05:24:00,61.0,61.0,28.82,SE,135,0.0,0.0,100,0.00,CLR,SKC,0.00,WeatherDisplay:10.37,2013-08-26 09:24:00,
2013-08-26 05:29:00,61.0,61.0,28.82,South,180,0.0,0.0,100,0.00,CLR,SKC,0.00,WeatherDisplay:10.37,2013-08-26 09:29:00,
2013-08-26 05:34:00,60.8,60.8,28.82,South,180,0.0,0.0,100,0.00,CLR,SKC,0.00,WeatherDisplay:10.37,2013-08-26 09:34:00,
2013-08-26 05:39:00,60.8,60.8,28.82,South,180,0.0,0.0,100,0.00,CLR,SKC,0.00,WeatherDisplay:10.37,2013-08-26 09:39:00,
2013-08-26 05:44:00,60.8,60.8,28.82,South,180,0.0,0.0,100,0.00,CLR,SKC,0.00,WeatherDisplay:10.37,2013-08-26 09:44:00,
2013-08-26 05:49:00,60.6,60.6,28.82,South,180,0.0,0.0,100,0.00,CLR,SKC,0.00,WeatherDisplay:10.37,2013-08-26 09:49:00,
2013-08-26 05:54:00,60.6,60.3,28.82,South,180,0.0,0.0,99,0.00,CLR,SKC,0.00,WeatherDisplay:10.37,2013-08-26 09:54:00,
2013-08-26 05:59:00,60.6,60.6,28.82,SE,135,0.0,0.0,100,0.00,CLR,SKC,0.00,WeatherDisplay:10.37,2013-08-26 09:59:00,
2013-08-26 06:04:00,60.6,60.6,28.82,SE,135,0.0,0.0,100,0.00,CLR,SKC,0.00,WeatherDisplay:10.37,2013-08-26 10:04:00,
2013-08-26 06:09:00,60.4,60.2,28.82,SE,135,0.0,0.0,99,0.00,CLR,SKC,0.00,WeatherDisplay:10.37,2013-08-26 10:09:00,
2013-08-26 06:14:00,60.4,60.2,28.82,SE,135,0.0,0.0,99,0.00,CLR,SKC,0.00,WeatherDisplay:10.37,2013-08-26 10:14:00,
2013-08-26 06:19:00,60.4,60.2,28.83,SE,135,0.0,0.0,99,0.00,CLR,SKC,0.00,WeatherDisplay:10.37,2013-08-26 10:19:00,
2013-08-26 06:24:00,60.4,60.2,28.83,South,180,0.0,0.0,99,0.00,CLR,SKC,0.00,WeatherDisplay:10.37,2013-08-26 10:24:00,
2013-08-26 06:29:00,60.4,60.2,28.83,South,180,0.0,0.0,99,0.00,CLR,SKC,0.00,WeatherDisplay:10.37,2013-08-26 10:29:00,
2013-08-26 06:34:00,60.4,60.2,28.83,South,180,0.0,0.0,99,0.00,CLR,SKC,0.00,WeatherDisplay:10.37,2013-08-26 10:34:00,
2013-08-26 06:39:00,60.4,60.2,28.83,South,180,0.0,0.0,99,0.00,CLR,SKC,0.00,WeatherDisplay:10.37,2013-08-26 10:39:00,
2013-08-26 06:44:00,60.4,60.2,28.83,SE,135,0.0,0.0,99,0.00,CLR,SKC,0.00,WeatherDisplay:10.37,2013-08-26 10:44:00,
2013-08-26 06:49:00,60.4,60.4,28.83,South,180,0.0,0.0,100,0.00,CLR,SKC,0.00,WeatherDisplay:10.37,2013-08-26 10:49:00,
2013-08-26 06:54:00,60.3,60.0,28.83,South,180,0.0,0.0,99,0.00,CLR,SKC,0.00,WeatherDisplay:10.37,2013-08-26 10:54:00,
2013-08-26 06:59:00,60.3,59.7,28.83,South,180,0.0,0.0,98,0.00,CLR,SKC,0.00,WeatherDisplay:10.37,2013-08-26 10:59:00,
2013-08-26 07:04:00,60.3,60.0,28.84,South,180,0.0,0.0,99,0.00,CLR,SKC,0.00,WeatherDisplay:10.37,2013-08-26 11:04:00,
2013-08-26 07:09:00,60.4,60.2,28.83,SE,135,0.0,0.0,99,0.00,CLR,SKC,0.00,WeatherDisplay:10.37,2013-08-26 11:09:00,
2013-08-26 07:14:00,60.4,60.2,28.84,South,180,0.0,0.0,99,0.00,CLR,SKC,0.00,WeatherDisplay:10.37,2013-08-26 11:14:00,
2013-08-26 07:19:00,60.6,60.1,28.84,SE,135,0.0,0.0,98,0.00,CLR,SKC,0.00,WeatherDisplay:10.37,2013-08-26 11:19:00,
2013-08-26 07:24:00,60.8,60.2,28.84,South,180,0.0,0.0,98,0.00,CLR,SKC,0.00,WeatherDisplay:10.37,2013-08-26 11:24:00,
2013-08-26 07:29:00,61.0,60.1,28.84,SE,135,0.0,0.0,97,0.00,CLR,SKC,0.00,WeatherDisplay:10.37,2013-08-26 11:29:00,
2013-08-26 07:34:00,61.2,60.3,28.84,SE,135,0.0,0.0,97,0.00,CLR,SKC,0.00,WeatherDisplay:10.37,2013-08-26 11:34:00,
2013-08-26 07:39:00,61.3,60.2,28.84,South,180,0.0,0.0,96,0.00,CLR,SKC,0.00,WeatherDisplay:10.37,2013-08-26 11:39:00,
2013-08-26 07:44:00,61.7,60.8,28.85,SE,135,0.0,0.0,97,0.00,CLR,SKC,0.00,WeatherDisplay:10.37,2013-08-26 11:44:00,
2013-08-26 07:49:00,61.9,60.1,28.85,North,7,0.0,0.0,94,0.00,CLR,SKC,0.00,WeatherDisplay:10.37,2013-08-26 11:49:00,
2013-08-26 07:54:00,62.2,60.2,28.85,SE,135,0.0,0.0,93,0.00,CLR,SKC,0.00,WeatherDisplay:10.37,2013-08-26 11:54:00,
2013-08-26 07:59:00,62.6,59.9,28.86,SE,135,0.0,0.0,91,0.00,CLR,SKC,0.00,WeatherDisplay:10.37,2013-08-26 11:59:00,
2013-08-26 08:04:00,62.6,59.9,28.86,East,90,0.0,0.0,91,0.00,CLR,SKC,0.00,WeatherDisplay:10.37,2013-08-26 12:04:00,
2013-08-26 08:09:00,63.1,59.5,28.86,SE,135,0.0,0.0,88,0.00,CLR,SKC,0.00,WeatherDisplay:10.37,2013-08-26 12:09:00,
2013-08-26 08:14:00,63.5,58.9,28.86,SE,135,0.0,0.0,85,0.00,CLR,SKC,0.00,WeatherDisplay:10.37,2013-08-26 12:14:00,
2013-08-26 08:19:00,63.9,58.6,28.85,South,180,0.0,0.0,83,0.00,CLR,SKC,0.00,WeatherDisplay:10.37,2013-08-26 12:19:00,
2013-08-26 08:24:00,64.2,57.6,28.85,SE,135,0.0,0.0,79,0.00,CLR,SKC,0.00,WeatherDisplay:10.37,2013-08-26 12:24:00,
2013-08-26 08:29:00,64.6,56.5,28.85,South,180,0.0,2.2,75,0.00,CLR,SKC,0.00,WeatherDisplay:10.37,2013-08-26 12:29:00,
2013-08-26 08:34:00,64.9,55.7,28.85,SE,135,1.2,0.0,72,0.00,CLR,SKC,0.00,WeatherDisplay:10.37,2013-08-26 12:34:00,
2013-08-26 08:39:00,65.1,53.9,28.85,SE,135,1.2,1.2,67,0.00,CLR,SKC,0.00,WeatherDisplay:10.37,2013-08-26 12:39:00,
2013-08-26 08:44:00,65.3,52.8,28.85,South,180,1.2,0.0,64,0.00,CLR,SKC,0.00,WeatherDisplay:10.37,2013-08-26 12:44:00,
2013-08-26 08:49:00,65.7,51.4,28.85,South,180,1.2,0.0,60,0.00,CLR,SKC,0.00,WeatherDisplay:10.37,2013-08-26 12:49:00,
2013-08-26 08:54:00,66.0,50.3,28.85,South,180,3.5,3.5,57,0.00,CLR,SKC,0.00,WeatherDisplay:10.37,2013-08-26 12:54:00,
2013-08-26 08:59:00,66.4,49.2,28.85,SE,135,1.2,1.2,54,0.00,CLR,SKC,0.00,WeatherDisplay:10.37,2013-08-26 12:59:00,
2013-08-26 09:04:00,66.6,48.9,28.84,South,180,1.2,1.2,53,0.00,CLR,SKC,0.00,WeatherDisplay:10.37,2013-08-26 13:04:00,
2013-08-26 09:09:00,67.1,47.8,28.85,SE,135,1.2,1.2,50,0.00,CLR,SKC,0.00,WeatherDisplay:10.37,2013-08-26 13:09:00,
2013-08-26 09:14:00,67.5,46.5,28.84,SSE,158,2.3,2.3,47,0.00,CLR,SKC,0.00,WeatherDisplay:10.37,2013-08-26 13:14:00,
2013-08-26 09:19:00,68.0,46.4,28.85,North,6,0.0,0.0,46,0.00,CLR,SKC,0.00,WeatherDisplay:10.37,2013-08-26 13:19:00,
2013-08-26 09:24:00,68.4,45.0,28.84,South,180,0.0,0.0,43,0.00,CLR,SKC,0.00,WeatherDisplay:10.37,2013-08-26 13:24:00,
2013-08-26 09:29:00,68.7,43.4,28.84,South,180,0.0,0.0,40,0.00,CLR,SKC,0.00,WeatherDisplay:10.37,2013-08-26 13:29:00,
2013-08-26 09:34:00,69.3,42.6,28.85,SE,135,0.0,0.0,38,0.00,CLR,SKC,0.00,WeatherDisplay:10.37,2013-08-26 13:34:00,
2013-08-26 09:39:00,69.8,41.6,28.83,South,180,0.0,0.0,36,0.00,CLR,SKC,0.00,WeatherDisplay:10.37,2013-08-26 13:39:00,
2013-08-26 09:44:00,70.3,40.6,28.84,South,180,0.0,0.0,34,0.00,CLR,SKC,0.00,WeatherDisplay:10.37,2013-08-26 13:44:00,
2013-08-26 09:49:00,70.7,40.2,28.84,North,0,0.0,0.0,33,0.00,CLR,SKC,0.00,WeatherDisplay:10.37,2013-08-26 13:49:00,
2013-08-26 09:54:00,70.9,39.5,28.84,South,180,0.0,0.0,32,0.00,CLR,SKC,0.00,WeatherDisplay:10.37,2013-08-26 13:54:00,
2013-08-26 09:59:00,71.4,38.4,28.84,South,180,0.0,0.0,30,0.00,CLR,SKC,0.00,WeatherDisplay:10.37,2013-08-26 13:59:00,
2013-08-26 10:04:00,71.4,38.4,28.84,SSE,158,0.0,0.0,30,0.00,CLR,SKC,0.00,WeatherDisplay:10.37,2013-08-26 14:04:00,
2013-08-26 10:09:00,72.3,39.1,28.84,South,180,0.0,0.0,30,0.00,CLR,SKC,0.00,WeatherDisplay:10.37,2013-08-26 14:09:00,
2013-08-26 10:14:00,72.7,39.4,28.84,South,180,3.5,0.0,30,0.00,CLR,SKC,0.00,WeatherDisplay:10.37,2013-08-26 14:14:00,
2013-08-26 10:19:00,73.2,39.9,28.84,West,270,1.2,1.2,30,0.00,CLR,SKC,0.00,WeatherDisplay:10.37,2013-08-26 14:19:00,
2013-08-26 10:24:00,74.1,40.7,28.84,NE,45,4.6,0.0,30,0.00,CLR,SKC,0.00,WeatherDisplay:10.37,2013-08-26 14:24:00,
2013-08-26 10:29:00,75.0,41.5,28.84,SE,135,3.8,3.8,30,0.00,CLR,SKC,0.00,WeatherDisplay:10.37,2013-08-26 14:29:00,
2013-08-26 10:34:00,75.6,41.9,28.83,NE,45,2.3,2.3,30,0.00,CLR,SKC,0.00,WeatherDisplay:10.37,2013-08-26 14:34:00,
2013-08-26 10:39:00,76.8,43.0,28.84,West,270,3.5,3.5,30,0.00,CLR,SKC,0.00,WeatherDisplay:10.37,2013-08-26 14:39:00,
2013-08-26 10:44:00,78.1,44.1,28.83,West,270,2.3,2.3,30,0.00,CLR,SKC,0.00,WeatherDisplay:10.37,2013-08-26 14:44:00,
2013-08-26 10:49:00,79.3,45.2,28.83,South,180,2.3,0.0,30,0.00,CLR,SKC,0.00,WeatherDisplay:10.37,2013-08-26 14:49:00,
2013-08-26 10:54:00,80.4,46.1,28.83,South,180,3.5,0.0,30,0.00,CLR,SKC,0.00,WeatherDisplay:10.37,2013-08-26 14:54:00,
2013-08-26 10:59:00,80.6,46.3,28.83,South,180,2.3,2.3,30,0.00,CLR,SKC,0.00,WeatherDisplay:10.37,2013-08-26 14:59:00,
2013-08-26 11:04:00,80.8,46.4,28.82,West,270,1.2,0.0,30,0.00,CLR,SKC,0.00,WeatherDisplay:10.37,2013-08-26 15:04:00,
2013-08-26 11:09:00,81.7,48.9,28.82,ENE,68,3.5,3.5,32,0.00,CLR,SKC,0.00,WeatherDisplay:10.37,2013-08-26 15:09:00,
2013-08-26 11:14:00,82.2,51.1,28.82,North,8,1.2,1.2,34,0.00,CLR,SKC,0.00,WeatherDisplay:10.37,2013-08-26 15:14:00,
2013-08-26 11:19:00,82.2,53.4,28.83,SE,135,3.5,3.5,37,0.00,CLR,SKC,0.00,WeatherDisplay:10.37,2013-08-26 15:19:00,
2013-08-26 11:24:00,83.1,57.0,28.82,South,180,2.3,2.3,41,0.00,CLR,SKC,0.00,WeatherDisplay:10.37,2013-08-26 15:24:00,
2013-08-26 11:29:00,84.2,57.9,28.83,North,1,2.3,2.3,41,0.00,CLR,SKC,0.00,WeatherDisplay:10.37,2013-08-26 15:29:00,
2013-08-26 11:34:00,84.6,58.3,28.83,North,4,3.5,3.5,41,0.00,CLR,SKC,0.00,WeatherDisplay:10.37,2013-08-26 15:34:00,
2013-08-26 11:39:00,84.4,59.4,28.82,SE,135,5.8,5.8,43,0.00,CLR,SKC,0.00,WeatherDisplay:10.37,2013-08-26 15:39:00,
2013-08-26 11:44:00,83.5,61.1,28.82,South,180,8.1,8.1,47,0.00,CLR,SKC,0.00,WeatherDisplay:10.37,2013-08-26 15:44:00,
2013-08-26 11:49:00,83.7,63.6,28.82,SE,135,5.8,5.8,51,0.00,CLR,SKC,0.00,WeatherDisplay:10.37,2013-08-26 15:49:00,
2013-08-26 11:54:00,84.9,66.4,28.82,South,180,1.2,1.2,54,0.00,CLR,SKC,0.00,WeatherDisplay:10.37,2013-08-26 15:54:00,
2013-08-26 11:59:00,85.8,67.3,28.82,SE,135,3.5,3.5,54,0.00,CLR,SKC,0.00,WeatherDisplay:10.37,2013-08-26 15:59:00,
2013-08-26 12:04:00,86.0,66.3,28.82,SE,135,3.5,3.5,52,0.00,CLR,SKC,0.00,WeatherDisplay:10.37,2013-08-26 16:04:00,
2013-08-26 12:09:00,86.9,68.8,28.82,East,90,3.5,0.0,55,0.00,CLR,SKC,0.00,WeatherDisplay:10.37,2013-08-26 16:09:00,
2013-08-26 12:14:00,86.2,68.1,28.81,South,180,6.9,6.9,55,0.00,CLR,SKC,0.00,WeatherDisplay:10.37,2013-08-26 16:14:00,
2013-08-26 12:19:00,85.8,70.3,28.81,NW,315,3.5,3.5,60,0.00,CLR,SKC,0.00,WeatherDisplay:10.37,2013-08-26 16:19:00,
2013-08-26 12:24:00,86.2,71.2,28.81,South,180,3.5,0.0,61,0.00,CLR,SKC,0.00,WeatherDisplay:10.37,2013-08-26 16:24:00,
2013-08-26 12:29:00,86.9,72.3,28.81,South,180,3.5,3.5,62,0.00,CLR,SKC,0.00,WeatherDisplay:10.37,2013-08-26 16:29:00,
2013-08-26 12:34:00,85.6,71.1,28.80,South,180,5.8,5.8,62,0.00,CLR,SKC,0.00,WeatherDisplay:10.37,2013-08-26 16:34:00,
2013-08-26 12:39:00,84.2,71.2,28.80,ENE,68,5.8,5.8,65,0.00,CLR,SKC,0.00,WeatherDisplay:10.37,2013-08-26 16:39:00,
2013-08-26 12:44:00,84.4,72.7,28.80,East,90,4.6,4.6,68,0.00,CLR,SKC,0.00,WeatherDisplay:10.37,2013-08-26 16:44:00,
2013-08-26 12:49:00,85.8,73.6,28.79,South,180,5.8,5.8,67,0.00,CLR,SKC,0.00,WeatherDisplay:10.37,2013-08-26 16:49:00,
2013-08-26 12:54:00,87.3,74.1,28.79,South,180,2.3,0.0,65,0.00,CLR,SKC,0.00,WeatherDisplay:10.37,2013-08-26 16:54:00,
2013-08-26 12:59:00,88.0,74.3,28.79,SE,135,6.9,6.9,64,0.00,CLR,SKC,0.00,WeatherDisplay:10.37,2013-08-26 16:59:00,
2013-08-26 13:04:00,88.2,74.4,28.78,East,90,1.2,1.2,64,0.00,CLR,SKC,0.00,WeatherDisplay:10.37,2013-08-26 17:04:00,
2013-08-26 13:09:00,87.8,74.6,28.79,South,180,2.3,2.3,65,0.00,CLR,SKC,0.00,WeatherDisplay:10.37,2013-08-26 17:09:00,
2013-08-26 13:14:00,88.2,75.4,28.78,West,270,2.3,2.3,66,0.00,CLR,SKC,0.00,WeatherDisplay:10.37,2013-08-26 17:14:00,
2013-08-26 13:19:00,88.3,75.1,28.78,South,180,4.6,4.6,65,0.00,CLR,SKC,0.00,WeatherDisplay:10.37,2013-08-26 17:19:00,
2013-08-26 13:24:00,88.2,75.4,28.77,SE,135,3.5,3.5,66,0.00,CLR,SKC,0.00,WeatherDisplay:10.37,2013-08-26 17:24:00,
2013-08-26 13:29:00,88.2,75.8,28.77,North,0,2.3,2.3,67,0.00,CLR,SKC,0.00,WeatherDisplay:10.37,2013-08-26 17:29:00,
2013-08-26 13:34:00,88.3,75.5,28.77,West,270,1.2,1.2,66,0.00,CLR,SKC,0.00,WeatherDisplay:10.37,2013-08-26 17:34:00,
2013-08-26 13:39:00,88.9,76.5,28.76,SE,135,4.6,4.6,67,0.00,CLR,SKC,0.00,WeatherDisplay:10.37,2013-08-26 17:39:00,
2013-08-26 13:44:00,89.1,76.2,28.76,West,270,3.5,3.5,66,0.00,CLR,SKC,0.00,WeatherDisplay:10.37,2013-08-26 17:44:00,
2013-08-26 13:49:00,88.7,75.9,28.76,North,6,3.5,3.5,66,0.00,CLR,SKC,0.00,WeatherDisplay:10.37,2013-08-26 17:49:00,
2013-08-26 13:54:00,88.2,75.8,28.76,NE,45,3.5,3.5,67,0.00,CLR,SKC,0.00,WeatherDisplay:10.37,2013-08-26 17:54:00,
2013-08-26 13:59:00,88.3,76.4,28.75,West,270,2.3,2.3,68,0.00,CLR,SKC,0.00,WeatherDisplay:10.37,2013-08-26 17:59:00,
2013-08-26 14:04:00,88.2,76.3,28.75,SE,135,5.8,5.8,68,0.00,CLR,SKC,0.00,WeatherDisplay:10.37,2013-08-26 18:04:00,
2013-08-26 14:09:00,88.2,76.3,28.75,South,180,5.8,5.8,68,0.00,CLR,SKC,0.00,WeatherDisplay:10.37,2013-08-26 18:09:00,
2013-08-26 14:14:00,88.0,77.0,28.75,SE,135,3.5,3.5,70,0.00,CLR,SKC,0.00,WeatherDisplay:10.37,2013-08-26 18:14:00,
2013-08-26 14:19:00,88.9,76.9,28.75,South,180,5.8,5.8,68,0.00,CLR,SKC,0.00,WeatherDisplay:10.37,2013-08-26 18:19:00,
2013-08-26 14:24:00,88.7,76.3,28.75,SE,135,3.5,3.5,67,0.00,CLR,SKC,0.00,WeatherDisplay:10.37,2013-08-26 18:24:00,
2013-08-26 14:28:00,87.3,75.4,28.74,West,270,8.1,8.1,68,0.00,CLR,SKC,0.00,WeatherDisplay:10.37,2013-08-26 18:28:00,
2013-08-26 14:33:00,87.4,76.9,28.74,NW,315,2.3,2.3,71,0.00,CLR,SKC,0.00,WeatherDisplay:10.37,2013-08-26 18:33:00,
2013-08-26 14:38:00,87.6,76.6,28.73,West,270,10.4,10.4,70,0.00,CLR,SKC,0.00,WeatherDisplay:10.37,2013-08-26 18:38:00,
2013-08-26 14:43:00,86.9,75.5,28.74,West,270,4.6,4.6,69,0.00,CLR,SKC,0.00,WeatherDisplay:10.37,2013-08-26 18:43:00,
2013-08-26 14:48:00,86.4,75.4,28.73,South,180,3.5,3.5,70,0.00,CLR,SKC,0.00,WeatherDisplay:10.37,2013-08-26 18:48:00,
2013-08-26 14:53:00,86.0,75.5,28.73,SE,135,4.6,4.6,71,0.00,CLR,SKC,0.00,WeatherDisplay:10.37,2013-08-26 18:53:00,
2013-08-26 14:58:00,86.0,75.9,28.73,South,180,2.3,2.3,72,0.00,CLR,SKC,0.00,WeatherDisplay:10.37,2013-08-26 18:58:00,
2013-08-26 15:03:00,86.0,75.5,28.72,West,270,3.5,3.5,71,0.00,CLR,SKC,0.00,WeatherDisplay:10.37,2013-08-26 19:03:00,
2013-08-26 15:08:00,85.8,75.3,28.72,SSE,158,3.5,3.5,71,0.00,CLR,SKC,0.00,WeatherDisplay:10.37,2013-08-26 19:08:00,
2013-08-26 15:13:00,85.5,75.8,28.71,SE,135,3.5,3.5,73,0.00,CLR,SKC,0.00,WeatherDisplay:10.37,2013-08-26 19:13:00,
2013-08-26 15:18:00,86.2,76.5,28.72,South,180,3.5,3.5,73,0.00,CLR,SKC,0.00,WeatherDisplay:10.37,2013-08-26 19:18:00,
2013-08-26 15:23:00,85.6,75.2,28.71,South,180,4.6,4.6,71,0.00,CLR,SKC,0.00,WeatherDisplay:10.37,2013-08-26 19:23:00,
2013-08-26 15:28:00,85.8,75.7,28.71,South,180,4.6,4.6,72,0.00,CLR,SKC,0.00,WeatherDisplay:10.37,2013-08-26 19:28:00,
2013-08-26 15:33:00,86.5,76.0,28.70,SE,135,4.6,4.6,71,0.00,CLR,SKC,0.00,WeatherDisplay:10.37,2013-08-26 19:33:00,
2013-08-26 15:38:00,86.5,75.6,28.70,South,180,3.5,3.5,70,0.00,CLR,SKC,0.00,WeatherDisplay:10.37,2013-08-26 19:38:00,
2013-08-26 15:43:00,86.2,74.8,28.69,South,180,4.6,4.6,69,0.00,CLR,SKC,0.00,WeatherDisplay:10.37,2013-08-26 19:43:00,
2013-08-26 15:48:00,86.2,76.1,28.70,South,180,3.5,3.5,72,0.00,CLR,SKC,0.00,WeatherDisplay:10.37,2013-08-26 19:48:00,
2013-08-26 15:53:00,86.0,76.3,28.70,West,270,3.5,3.5,73,0.00,CLR,SKC,0.00,WeatherDisplay:10.37,2013-08-26 19:53:00,
2013-08-26 15:58:00,85.6,75.6,28.69,South,180,4.6,4.6,72,0.00,CLR,SKC,0.00,WeatherDisplay:10.37,2013-08-26 19:58:00,
2013-08-26 16:03:00,85.6,75.2,28.70,SE,135,2.3,2.3,71,0.00,CLR,SKC,0.00,WeatherDisplay:10.37,2013-08-26 20:03:00,
2013-08-26 16:08:00,85.1,75.5,28.69,East,90,3.5,3.5,73,0.00,CLR,SKC,0.00,WeatherDisplay:10.37,2013-08-26 20:08:00,
2013-08-26 16:13:00,84.6,74.9,28.69,South,180,3.5,3.5,73,0.00,CLR,SKC,0.00,WeatherDisplay:10.37,2013-08-26 20:13:00,
2013-08-26 16:18:00,84.4,74.8,28.68,South,180,3.5,3.5,73,0.00,CLR,SKC,0.00,WeatherDisplay:10.37,2013-08-26 20:18:00,
2013-08-26 16:23:00,84.0,74.4,28.68,South,180,3.5,3.5,73,0.00,CLR,SKC,0.00,WeatherDisplay:10.37,2013-08-26 20:23:00,
2013-08-26 16:28:00,84.2,75.4,28.68,West,270,1.2,1.6,75,0.00,CLR,SKC,0.00,WeatherDisplay:10.37,2013-08-26 20:28:00,
2013-08-26 16:33:00,84.4,74.8,28.68,NW,315,5.8,5.8,73,0.00,CLR,SKC,0.00,WeatherDisplay:10.37,2013-08-26 20:33:00,
2013-08-26 16:38:00,84.4,74.4,28.68,South,180,3.5,3.5,72,0.00,CLR,SKC,0.00,WeatherDisplay:10.37,2013-08-26 20:38:00,
2013-08-26 16:43:00,84.2,74.6,28.68,West,270,8.1,8.1,73,0.00,CLR,SKC,0.00,WeatherDisplay:10.37,2013-08-26 20:43:00,
2013-08-26 16:48:00,83.8,74.7,28.67,West,270,3.5,3.5,74,0.00,CLR,SKC,0.00,WeatherDisplay:10.37,2013-08-26 20:48:00,
2013-08-26 16:53:00,83.7,74.9,28.67,North,0,2.3,2.3,75,0.00,CLR,SKC,0.00,WeatherDisplay:10.37,2013-08-26 20:53:00,
2013-08-26 16:58:00,83.5,74.7,28.67,SE,135,3.5,3.5,75,0.00,CLR,SKC,0.00,WeatherDisplay:10.37,2013-08-26 20:58:00,
2013-08-26 17:03:00,83.7,75.3,28.67,South,180,3.8,3.8,76,0.00,CLR,SKC,0.00,WeatherDisplay:10.37,2013-08-26 21:03:00,
2013-08-26 17:08:00,83.5,74.7,28.67,South,180,5.4,5.4,75,0.00,CLR,SKC,0.00,WeatherDisplay:10.37,2013-08-26 21:08:00,
2013-08-26 17:13:00,83.1,74.4,28.67,NW,315,5.8,5.8,75,0.00,CLR,SKC,0.00,WeatherDisplay:10.37,2013-08-26 21:13:00,
2013-08-26 17:18:00,82.9,74.6,28.67,North,8,5.8,5.8,76,0.00,CLR,SKC,0.00,WeatherDisplay:10.37,2013-08-26 21:18:00,
2013-08-26 17:23:00,82.9,75.0,28.67,NE,45,2.3,2.3,77,0.00,CLR,SKC,0.00,WeatherDisplay:10.37,2013-08-26 21:23:00,
2013-08-26 17:28:00,83.1,75.2,28.67,North,0,4.6,0.0,77,0.00,CLR,SKC,0.00,WeatherDisplay:10.37,2013-08-26 21:28:00,
2013-08-26 17:33:00,83.1,75.2,28.67,SE,135,3.5,3.5,77,0.00,CLR,SKC,0.00,WeatherDisplay:10.37,2013-08-26 21:33:00,
2013-08-26 17:38:00,83.3,74.9,28.67,NW,315,3.5,3.5,76,0.00,CLR,SKC,0.00,WeatherDisplay:10.37,2013-08-26 21:38:00,
2013-08-26 17:43:00,83.1,74.8,28.67,South,180,2.3,2.3,76,0.00,CLR,SKC,0.00,WeatherDisplay:10.37,2013-08-26 21:43:00,
2013-08-26 17:48:00,83.1,74.8,28.67,South,180,2.3,2.3,76,0.00,CLR,SKC,0.00,WeatherDisplay:10.37,2013-08-26 21:48:00,
2013-08-26 17:53:00,82.9,74.2,28.67,South,180,2.3,2.3,75,0.00,CLR,SKC,0.00,WeatherDisplay:10.37,2013-08-26 21:53:00,
2013-08-26 17:58:00,82.0,73.7,28.67,South,180,2.3,2.3,76,0.00,CLR,SKC,0.00,WeatherDisplay:10.37,2013-08-26 21:58:00,
2013-08-26 18:03:00,81.9,73.9,28.67,South,180,2.3,2.3,77,0.00,CLR,SKC,0.00,WeatherDisplay:10.37,2013-08-26 22:03:00,
2013-08-26 18:08:00,81.1,73.6,28.68,South,180,2.3,0.0,78,0.00,CLR,SKC,0.00,WeatherDisplay:10.37,2013-08-26 22:08:00,
2013-08-26 18:13:00,80.8,73.7,28.67,NE,45,0.0,0.0,79,0.00,CLR,SKC,0.00,WeatherDisplay:10.37,2013-08-26 22:13:00,
2013-08-26 18:18:00,80.6,73.5,28.67,South,180,0.0,0.0,79,0.00,CLR,SKC,0.00,WeatherDisplay:10.37,2013-08-26 22:18:00,
2013-08-26 18:23:00,80.2,73.5,28.67,North,1,2.3,2.3,80,0.00,CLR,SKC,0.00,WeatherDisplay:10.37,2013-08-26 22:23:00,
2013-08-26 18:28:00,79.9,73.2,28.67,West,270,2.3,2.3,80,0.00,CLR,SKC,0.00,WeatherDisplay:10.37,2013-08-26 22:28:00,
2013-08-26 18:33:00,79.9,73.5,28.66,SE,135,4.5,4.5,81,0.00,CLR,SKC,0.00,WeatherDisplay:10.37,2013-08-26 22:33:00,
2013-08-26 18:38:00,80.1,73.7,28.66,NNE,16,2.3,2.3,81,0.00,CLR,SKC,0.00,WeatherDisplay:10.37,2013-08-26 22:38:00,
2013-08-26 18:43:00,80.2,73.9,28.66,South,180,2.3,2.3,81,0.00,CLR,SKC,0.00,WeatherDisplay:10.37,2013-08-26 22:43:00,
2013-08-26 18:48:00,80.2,73.9,28.67,NW,315,2.3,2.3,81,0.00,CLR,SKC,0.00,WeatherDisplay:10.37,2013-08-26 22:48:00,
2013-08-26 18:53:00,80.1,73.7,28.66,West,270,4.6,4.6,81,0.00,CLR,SKC,0.00,WeatherDisplay:10.37,2013-08-26 22:53:00,
2013-08-26 18:58:00,80.1,73.7,28.65,South,180,3.5,3.5,81,0.00,CLR,SKC,0.00,WeatherDisplay:10.37,2013-08-26 22:58:00,
2013-08-26 19:03:00,79.9,73.5,28.66,East,90,1.2,0.0,81,0.00,CLR,SKC,0.00,WeatherDisplay:10.37,2013-08-26 23:03:00,
2013-08-26 19:08:00,79.9,73.5,28.66,East,90,1.2,0.0,81,0.00,CLR,SKC,0.00,WeatherDisplay:10.37,2013-08-26 23:08:00,
2013-08-26 19:13:00,79.3,73.4,28.66,SE,135,2.3,2.3,82,0.00,CLR,SKC,0.00,WeatherDisplay:10.37,2013-08-26 23:13:00,
2013-08-26 19:18:00,79.2,73.2,28.66,West,270,1.2,0.0,82,0.00,CLR,SKC,0.00,WeatherDisplay:10.37,2013-08-26 23:18:00,
2013-08-26 19:23:00,78.8,72.8,28.67,NE,45,3.5,3.5,82,0.00,CLR,SKC,0.00,WeatherDisplay:10.37,2013-08-26 23:23:00,
2013-08-26 19:28:00,78.6,73.0,28.67,South,180,2.3,0.0,83,0.00,CLR,SKC,0.00,WeatherDisplay:10.37,2013-08-26 23:28:00,
2013-08-26 19:33:00,78.4,72.8,28.67,NE,45,2.3,0.0,83,0.00,CLR,SKC,0.00,WeatherDisplay:10.37,2013-08-26 23:33:00,
2013-08-26 19:38:00,78.1,72.8,28.67,West,270,2.3,2.3,84,0.00,CLR,SKC,0.00,WeatherDisplay:10.37,2013-08-26 23:38:00,
2013-08-26 19:43:00,77.7,72.8,28.67,North,1,2.3,2.3,85,0.00,CLR,SKC,0.00,WeatherDisplay:10.37,2013-08-26 23:43:00,
2013-08-26 19:48:00,77.5,72.7,28.67,SE,135,3.5,3.5,85,0.00,CLR,SKC,0.00,WeatherDisplay:10.37,2013-08-26 23:48:00,
2013-08-26 19:53:00,77.2,72.3,28.67,South,180,2.3,2.3,85,0.00,CLR,SKC,0.00,WeatherDisplay:10.37,2013-08-26 23:53:00,
2013-08-26 19:58:00,77.0,72.1,28.67,SE,135,2.3,2.3,85,0.00,CLR,SKC,0.00,WeatherDisplay:10.37,2013-08-26 23:58:00,
2013-08-26 20:03:00,76.8,72.3,28.66,NNE,16,3.5,3.5,86,0.00,CLR,SKC,0.00,WeatherDisplay:10.37,2013-08-27 00:03:00,
2013-08-26 20:08:00,76.5,72.0,28.67,South,180,3.5,0.0,86,0.00,CLR,SKC,0.00,WeatherDisplay:10.37,2013-08-27 00:08:00,
2013-08-26 20:13:00,76.3,71.8,28.67,North,8,2.3,2.3,86,0.00,CLR,SKC,0.00,WeatherDisplay:10.37,2013-08-27 00:13:00,
2013-08-26 20:18:00,76.1,71.6,28.68,SE,135,2.3,0.0,86,0.00,CLR,SKC,0.00,WeatherDisplay:10.37,2013-08-27 00:18:00,
2013-08-26 20:23:00,75.9,71.4,28.68,East,90,1.2,0.0,86,0.00,CLR,SKC,0.00,WeatherDisplay:10.37,2013-08-27 00:23:00,
2013-08-26 20:28:00,75.7,71.3,28.68,SE,135,1.2,0.0,86,0.00,CLR,SKC,0.00,WeatherDisplay:10.37,2013-08-27 00:28:00,
2013-08-26 20:33:00,75.6,71.1,28.68,South,180,2.3,0.0,86,0.00,CLR,SKC,0.00,WeatherDisplay:10.37,2013-08-27 00:33:00,
2013-08-26 20:38:00,75.4,70.9,28.68,SE,135,0.0,0.0,86,0.00,CLR,SKC,0.00,WeatherDisplay:10.37,2013-08-27 00:38:00,
2013-08-26 20:43:00,75.2,70.7,28.68,SSE,158,1.2,0.0,86,0.00,CLR,SKC,0.00,WeatherDisplay:10.37,2013-08-27 00:43:00,
2013-08-26 20:48:00,74.8,70.7,28.68,South,180,1.6,0.0,87,0.00,CLR,SKC,0.00,WeatherDisplay:10.37,2013-08-27 00:48:00,
2013-08-26 20:53:00,74.7,70.5,28.69,South,180,0.0,0.0,87,0.00,CLR,SKC,0.00,WeatherDisplay:10.37,2013-08-27 00:53:00,
2013-08-26 20:58:00,74.3,70.2,28.69,SE,135,0.0,0.0,87,0.00,CLR,SKC,0.00,WeatherDisplay:10.37,2013-08-27 00:58:00,
2013-08-26 21:03:00,74.3,70.2,28.69,SE,135,0.0,0.0,87,0.00,CLR,SKC,0.00,WeatherDisplay:10.37,2013-08-27 01:03:00,
2013-08-26 21:08:00,73.9,69.8,28.69,SE,135,0.0,0.0,87,0.00,CLR,SKC,0.00,WeatherDisplay:10.37,2013-08-27 01:08:00,
2013-08-26 21:13:00,73.8,69.6,28.70,SE,135,0.0,0.0,87,0.00,CLR,SKC,0.00,WeatherDisplay:10.37,2013-08-27 01:13:00,
2013-08-26 21:18:00,73.8,70.0,28.70,SE,135,0.0,0.0,88,0.00,CLR,SKC,0.00,WeatherDisplay:10.37,2013-08-27 01:18:00,
2013-08-26 21:23:00,73.8,70.0,28.70,SE,135,0.0,0.0,88,0.00,CLR,SKC,0.00,WeatherDisplay:10.37,2013-08-27 01:23:00,
2013-08-26 21:28:00,73.8,70.0,28.70,SE,135,0.0,0.0,88,0.00,CLR,SKC,0.00,WeatherDisplay:10.37,2013-08-27 01:28:00,
2013-08-26 21:33:00,73.8,70.0,28.70,SE,135,0.0,0.0,88,0.00,CLR,SKC,0.00,WeatherDisplay:10.37,2013-08-27 01:33:00,
2013-08-26 21:38:00,73.8,70.0,28.69,SE,135,0.0,0.0,88,0.00,CLR,SKC,0.00,WeatherDisplay:10.37,2013-08-27 01:38:00,
2013-08-26 21:43:00,73.8,70.0,28.69,SE,135,0.0,0.0,88,0.00,CLR,SKC,0.00,WeatherDisplay:10.37,2013-08-27 01:43:00,
2013-08-26 21:48:00,73.6,70.1,28.69,SE,135,0.0,0.0,89,0.00,CLR,SKC,0.00,WeatherDisplay:10.37,2013-08-27 01:48:00,
2013-08-26 21:53:00,73.4,70.0,28.68,South,180,2.3,2.3,89,0.00,CLR,SKC,0.00,WeatherDisplay:10.37,2013-08-27 01:53:00,
2013-08-26 21:58:00,73.2,69.8,28.68,SE,135,1.2,0.0,89,0.00,CLR,SKC,0.00,WeatherDisplay:10.37,2013-08-27 01:58:00,
2013-08-26 22:03:00,73.2,69.8,28.68,SE,135,0.0,0.0,89,0.00,CLR,SKC,0.00,WeatherDisplay:10.37,2013-08-27 02:03:00,
2013-08-26 22:08:00,73.2,69.8,28.67,South,180,2.3,0.0,89,0.00,CLR,SKC,0.00,WeatherDisplay:10.37,2013-08-27 02:08:00,
2013-08-26 22:13:00,73.2,69.8,28.67,SE,135,1.2,0.0,89,0.00,CLR,SKC,0.00,WeatherDisplay:10.37,2013-08-27 02:13:00,
2013-08-26 22:18:00,73.0,69.6,28.67,East,90,1.2,0.0,89,0.00,CLR,SKC,0.00,WeatherDisplay:10.37,2013-08-27 02:18:00,
2013-08-26 22:23:00,72.9,69.4,28.67,SE,135,1.2,0.0,89,0.00,CLR,SKC,0.00,WeatherDisplay:10.37,2013-08-27 02:23:00,
2013-08-26 22:28:00,72.7,69.2,28.67,South,180,1.2,0.0,89,0.00,CLR,SKC,0.00,WeatherDisplay:10.37,2013-08-27 02:28:00,
2013-08-26 22:33:00,72.5,69.1,28.67,SE,135,2.3,0.0,89,0.00,CLR,SKC,0.00,WeatherDisplay:10.37,2013-08-27 02:33:00,
2013-08-26 22:38:00,72.5,69.4,28.67,SE,135,1.2,0.0,90,0.00,CLR,SKC,0.00,WeatherDisplay:10.37,2013-08-27 02:38:00,
2013-08-26 22:43:00,72.3,69.2,28.67,SE,135,1.2,1.2,90,0.00,CLR,SKC,0.00,WeatherDisplay:10.37,2013-08-27 02:43:00,
2013-08-26 22:48:00,72.1,69.0,28.66,South,180,1.2,0.0,90,0.00,CLR,SKC,0.00,WeatherDisplay:10.37,2013-08-27 02:48:00,
2013-08-26 22:53:00,72.1,69.0,28.66,South,180,0.0,0.0,90,0.00,CLR,SKC,0.00,WeatherDisplay:10.37,2013-08-27 02:53:00,
2013-08-26 22:58:00,72.3,69.2,28.66,SE,135,0.0,0.0,90,0.00,CLR,SKC,0.00,WeatherDisplay:10.37,2013-08-27 02:58:00,
2013-08-26 23:03:00,72.3,69.2,28.66,South,180,0.0,0.0,90,0.00,CLR,SKC,0.00,WeatherDisplay:10.37,2013-08-27 03:03:00,
2013-08-26 23:08:00,72.3,69.2,28.66,SE,135,0.0,0.0,90,0.00,CLR,SKC,0.00,WeatherDisplay:10.37,2013-08-27 03:08:00,
2013-08-26 23:13:00,72.3,69.2,28.66,SE,135,0.0,0.0,90,0.00,CLR,SKC,0.00,WeatherDisplay:10.37,2013-08-27 03:13:00,
2013-08-26 23:18:00,72.1,69.0,28.66,South,180,0.0,0.0,90,0.00,CLR,SKC,0.00,WeatherDisplay:10.37,2013-08-27 03:18:00,
2013-08-26 23:23:00,72.1,69.0,28.65,South,180,0.0,0.7,90,0.00,CLR,SKC,0.00,WeatherDisplay:10.37,2013-08-27 03:23:00,
2013-08-26 23:28:00,72.1,69.0,28.65,South,180,0.0,0.0,90,0.00,CLR,SKC,0.00,WeatherDisplay:10.37,2013-08-27 03:28:00,
2013-08-26 23:34:00,72.1,69.0,28.65,South,180,0.0,0.0,90,0.00,CLR,SKC,0.00,WeatherDisplay:10.37,2013-08-27 03:34:00,
2013-08-26 23:39:00,72.0,68.9,28.65,South,180,1.2,0.0,90,0.00,CLR,SKC,0.00,WeatherDisplay:10.37,2013-08-27 03:39:00,
2013-08-26 23:44:00,72.1,69.0,28.64,South,180,1.6,0.0,90,0.00,CLR,SKC,0.00,WeatherDisplay:10.37,2013-08-27 03:44:00,
2013-08-26 23:49:00,72.0,68.9,28.64,SE,135,1.6,0.0,90,0.00,CLR,SKC,0.00,WeatherDisplay:10.37,2013-08-27 03:49:00,
2013-08-26 23:54:00,72.0,68.9,28.64,South,180,2.3,0.0,90,0.00,CLR,SKC,0.00,WeatherDisplay:10.37,2013-08-27 03:54:00,
2013-08-26 23:59:00,72.0,68.9,28.64,West,270,1.2,0.0,90,0.00,CLR,SKC,0.00,WeatherDisplay:10.37,2013-08-27 03:59:00,